{"data":{"norad_id":68328,"epoch":"2026-05-24T22:59:45.359232Z","epoch_age_seconds":72469,"freshness":"FRESH","line1":"1 68328U 26059H   26144.95816388  .00015202  00000+0  52443-3 0  9994","line2":"2 68328  53.1593 353.9397 0001283  74.4258 285.6884 15.30193661  9856","mean_motion":15.30193661,"eccentricity":0.0001283,"inclination_deg":53.1593,"raan_deg":353.9397,"arg_perigee_deg":74.4258,"mean_anomaly_deg":285.6884,"bstar":0.00052443,"rev_number":985,"period_min":94.105735548463,"perigee_km":474.35470909719,"apogee_km":476.11328409491,"semimajor_km":6853.3709965961,"source":"CELESTRAK","updated_at":"2026-05-25T13:38:21.922654Z"}}